SCP
0 0 0 0 0 0 0 0 0 -0 -0 -0 0 -0 -0 -0 -0 -0 0 0 0 0 0 0 0 0 0 0 0 0 0 0 0 0 0 0 0 0 0 0 0 0 0 0
0 -0 0 0 0 0 0 0 -0 0 -0 -0 -0 -0 -0 -0 -0 -0 0 0 0 0 0 0 0 0 0 0 0 0 0 0 0 0 0 0 0 0 0 0 0 0 0 0
-0 -0 -0 0 0 0 0 0 0 0 0 0 -0 -0 -0 0 -0 -0 0 0 0 0 0 0 0 0 0 0 0 0 0 0 0 0 0 0 0 0 0 0 0 0 0 0
-0 -0 -0 -0 0 0 0 0 0 0 -0 -0 -0 0 0 0 0 -0 -0 0 0 0 0 0 0 0 0 0 0 0 0 0 0 0 0 0 0 0 0 0 0 0 0 0
-0 -0 -0 -0 -0 0 0 0 0 0 0 0 0 -0 0 -0 0 0 0 0 0 0 0 0 0 0 0 0 0 0 0 0 0 0 0 0 0 0 0 0 0 0 0 0
-0 -0 -0 -0 -0 0 0 0 0 0 0 0 0 0 0 0 -0 0 0 0 0 0 0 0 0 0 0 0 0 0 0 0 0 0 0 0 0 0 0 0 0 0 0 0
-0 -0 -0 -0 -0 0 0 0 0 0 0 0 0 0 0 0 -0 0 -0 0 0 0 0 0 0 0 0 0 0 0 0 0 0 0 0 0 0 0 0 0 0 0 0 0
-0 -0 -0 -0 -0 -0 0 0 0 0 0 0 0 0 0 0 0 0 -0 -0 -0 0 0 0 0 0 0 0 0 0 0 0 0 0 0 0 0 0 0 0 0 0 0 0
-0 -0 -0 -0 -0 -0 0 0 0 0 0 0 0 0 0 0 0 0 0 0 0 0 0 0 0 0 0 0 0 0 0 0 0 0 0 0 0 0 0 0 0 0 0 0
-0 -0 -0 -0 -0 -0 0 0 -0 0 0 0 0 0 0 0 0 0 0 0 0 0 -0 0 0 0 0 0 0 0 0 0 0 0 0 0 0 0 0 0 0 0 0 0
-0 -0 -0 -0 -0 -0 0 0 0 0 0 0 0 0 0 0 0 0 0 0 0 0 0 -0 -0 -0 0 0 0 0 0 0 0 0 0 0 0 0 0 0 0 0 0 0
0 0 -0 -0 -0 -0 0 0 0 0 0 0 0 0 0 0 0 0 0 0 0 0 0 0 0 -0 -0 0 0 0 0 0 0 0 0 0 0 0 0 0 0 0 0 0
0 0 -0 -0 -0 0 0 0 0 0 0 0 0 0 0 0 0 0 0 0 0 0 0 0 0 0 0 -0 -0 0 0 0 0 0 0 0 0 0 0 0 0 0 0 0
0 0 0 0 -0 0 0 0 0 0 0 0 0 0 0 0 0 0 0 0 0 0 0 0 0 0 0 0 0 0 0 0 0 0 0 0 0 0 0 0 0 0 0 0
0 0 0 0 0 0 0 0 0 0 0 0 0 0 0 0 0 0 0 0 0 0 0 0 0 0 0 0 0 0 0 0 0 0 0 0 0 0 0 0 -0 -0 -0 0
0 0 0 -0 0 0 0 0 0 0 0 0 0 0 -0 -0 0 0 0 0 0 0 0 0 0 0 0 0 0 0 0 0 0 0 0 0 0 0 0 0 0 0 0 0
0 0 0 -0 0 0 0 0 0 0 0 0 0 0 0 0 0 0 0 0 0 0 0 0 0 0 0 0 0 0 0 0 0 0 0 0 0 0 0 0 0 0 0 0
0 0 -0 -0 0 0 0 0 0 0 0 0 0 0 0 0 0 0 0 0 0 0 0 0 0 0 0 0 0 0 0 0 0 0 0 0 0 0 0 0 0 0 0 0
0 -0 -0 0 0 0 0 0 0 0 -0 0 0 0 0 0 0 0 0 0 0 0 0 0 0 0 0 0 0 0 0 0 0 0 0 0 0 0 0 0 0 0 0 0
0 -0 0 0 0 0 0 0 0 0 0 0 0 0 0 0 0 0 0 0 0 -0 -0 0 0 -0 -0 0 0 0 0 0 0 0 0 0 0 0 0 0 0 0 0 0
-0 0 0 0 0 -0 0 0 0 0 0 0 0 0 0 0 0 0 0 0 0 -0 -0 -0 -0 -0 0 0 0 0 0 0 0 0 0 0 0 0 0 0 0 0 0 0
0 0 0 -0 -0 0 0 0 0 0 0 0 0 0 0 0 0 0 0 0 0 0 0 -0 -0 0 0 0 -0 0 -0 -0 -0 0 0 0 0 0 0 0 0 0 0 0
-0 0 0 0 0 0 0 0 0 0 0 0 0 0 0 0 0 0 0 0 0 0 0 0 0 0 0 0 0 0 0 0 -0 -0 0 0 0 0 0 0 0 0 0 0
-0 0 0 -0 0 0 0 0 0 0 0 0 0 0 0 0 0 0 0 0 0 0 0 0 0 0 0 0 0 0 0 0 0 0 0 0 0 0 0 0 0 0 0 0
0 0 0 -0 0 0 0 0 0 0 0 0 0 0 0 0 0 0 0 0 0 0 0 0 0 0 0 0 0 0 0 0 0 0 0 0 0 0 0 0 0 0 0 0
0 -0 0 0 0 0 0 0 0 0 0 0 0 0 0 0 0 0 0 0 0 0 0 0 0 0 0 0 0 0 0 0 0 0 0 0 0 0 0 0 0 0 0 0
0 -0 0 0 0 0 0 0 0 0 0 0 0 0 0 0 0 0 0 0 0 0 0 0 0 0 0 0 0 0 0 0 0 0 0 0 0 0 0 0 0 0 0 0
Wind_Speed_500mb
44 50 52 44 37 30 12 12 5 40 15 13 7 7 6 12 23 21 14 10 15 11 12 12 9 8 10 31 10 7 8 8 10 9 3 6 10 6 3 14 11 5 2 9
41 48 49 42 40 37 11 9 18 37 9 7 7 7 9 19 22 18 14 14 16 12 8 9 8 6 12 28 13 7 4 6 10 5 6 5 7 9 6 4 1 7 11 11
36 42 44 41 42 33 16 8 5 21 35 16 8 6 8 7 17 18 17 12 7 6 12 16 9 7 9 15 17 23 6 8 6 1 8 3 4 8 10 6 7 14 6 22
32 38 39 39 39 34 10 14 7 6 7 16 16 7 6 9 9 11 24 12 20 7 7 7 8 6 6 15 25 11 7 8 12 17 12 5 1 4 9 9 7 4 18 16
29 31 38 34 32 35 38 10 6 11 7 4 12 11 9 14 7 12 13 13 17 16 10 8 7 3 8 7 15 8 6 9 9 6 6 6 7 10 9 3 3 6 8 10
21 26 31 33 26 26 22 22 14 8 10 5 5 6 4 7 5 14 16 9 12 19 13 10 11 13 10 7 6 7 5 10 5 7 3 4 9 8 10 1 3 2 8 10
17 19 24 30 29 24 20 20 12 8 5 6 6 7 9 11 9 12 8 12 7 6 7 21 19 20 20 15 13 7 8 8 3 8 6 9 9 8 5 3 5 7 9 8
17 11 14 21 23 24 20 18 13 6 5 6 11 11 9 8 7 7 8 6 4 6 13 10 10 5 3 10 14 6 5 6 6 8 11 4 10 3 2 1 6 9 4 6
16 13 11 11 15 16 15 17 12 6 12 8 10 10 9 5 4 4 6 6 7 4 4 3 7 7 7 7 5 9 10 6 3 6 6 11 8 13 4 10 8 8 9 9
16 13 11 8 11 11 13 14 15 4 1 10 15 6 7 11 7 3 1 3 3 6 3 3 2 5 1 11 16 11 7 5 9 9 6 5 8 11 8 9 7 11 7 4
16 14 11 10 9 12 13 12 10 7 2 9 19 15 14 11 8 5 10 6 4 4 3 1 4 4 8 4 4 7 12 13 8 6 8 12 16 10 9 10 5 1 4 3
13 13 10 12 11 11 12 11 12 14 8 7 16 25 20 15 8 11 16 1 7 8 7 2 5 4 4 3 4 5 7 5 6 12 5 11 17 3 5 7 9 10 9 10
11 9 8 10 12 13 12 12 12 13 8 10 11 20 30 27 23 13 11 10 13 12 12 11 5 4 7 8 8 6 9 9 5 4 15 22 16 13 9 10 8 7 9 10
12 10 8 10 12 14 14 13 10 5 4 3 3 3 5 18 28 29 24 12 21 21 17 6 5 4 14 5 1 5 5 19 9 8 11 7 20 20 12 11 11 7 5 6
13 12 10 11 13 14 15 13 3 6 6 3 8 17 11 19 18 35 35 28 22 21 12 7 7 9 10 5 5 9 24 15 12 10 19 17 8 35 24 17 15 16 14 14
15 15 11 11 13 13 12 3 4 6 11 7 4 8 5 8 14 33 38 33 29 25 17 10 10 9 15 10 8 13 32 29 24 6 13 12 15 28 28 24 20 18 19 20
12 13 12 11 13 11 4 3 3 9 11 4 7 9 5 9 3 20 28 36 20 18 9 8 9 8 16 3 7 4 21 29 33 29 21 14 23 17 31 29 21 20 24 23
12 10 8 7 2 10 8 2 6 8 3 3 2 4 4 2 3 3 9 10 16 13 13 9 9 15 10 6 15 13 12 15 25 37 34 12 11 18 21 21 20 20 21 20
6 4 4 9 6 4 3 5 6 3 2 2 2 4 4 6 4 2 2 3 2 17 7 9 6 3 7 10 9 7 5 3 11 30 27 25 25 21 21 23 19 18 15 17
3 3 4 4 4 3 3 3 3 4 1 3 5 3 3 4 3 4 2 8 3 2 2 7 1 4 19 21 14 8 9 23 7 10 8 12 20 24 23 23 18 17 13 15
4 3 4 3 4 6 3 3 2 3 3 7 8 12 6 3 4 2 4 4 2 4 3 3 0 4 5 5 15 14 13 7 2 8 13 18 24 19 17 20 21 18 16 17
4 1 4 4 5 2 2 1 3 6 4 8 7 4 8 2 3 4 5 2 4 2 2 3 4 2 6 6 15 20 14 10 14 20 24 18 27 26 28 31 26 17 14 14
4 3 3 3 3 4 3 1 4 4 7 9 7 3 5 5 4 4 5 6 1 3 2 3 4 5 9 13 15 13 17 19 17 13 16 20 25 26 23 26 26 22 20 17
3 3 1 3 4 6 6 3 2 3 6 6 5 3 4 4 5 3 3 2 3 1 4 4 4 5 10 15 16 16 12 12 12 14 16 17 19 22 21 22 24 23 22 18
2 4 5 8 10 9 7 7 6 6 5 4 5 5 4 4 4 1 4 5 2 2 1 3 7 8 14 19 18 15 13 14 16 21 23 22 22 22 22 25 24 21 19 24
3 6 6 8 5 3 5 10 8 7 6 6 4 3 3 4 2 3 1 2 3 1 5 9 18 18 16 16 16 13 8 21 22 23 26 25 22 18 16 11 12 12 21 20
5 8 15 18 16 10 5 4 5 5 5 1 3 1 4 4 2 2 4 3 2 6 10 12 15 17 10 7 8 13 12 20 32 28 27 20 17 20 18 10 14 21 14 12
Wind_Direction_500mb
3 2 4 7 9 5 339 44 45 346 22 48 41 63 29 10 356 17 50 68 54 57 44 61 86 97 6 343 324 34 20 80 77 99 331 339 34 61 350 224 177 63 325 121
7 5 9 13 12 9 38 81 43 20 95 84 74 82 77 45 24 26 23 43 46 54 65 107 78 92 2 11 43 26 14 48 123 159 209 155 55 34 58 96 36 167 196 139
9 10 14 15 15 11 41 67 41 24 53 59 79 97 43 90 40 49 54 34 52 91 55 42 112 104 31 13 32 37 68 64 340 150 74 55 126 47 39 356 200 145 66 137
11 13 18 21 22 22 51 57 65 44 20 37 66 77 44 53 39 46 32 46 37 46 97 77 79 49 27 54 10 40 46 92 88 76 76 66 20 2 24 51 83 325 135 127
10 15 23 26 31 46 66 89 119 83 70 10 52 28 43 62 58 22 39 84 45 60 85 46 117 92 33 28 357 47 19 117 128 77 39 16 289 283 300 311 122 128 130 124
5 14 24 34 39 43 61 77 80 101 14 45 61 31 69 78 103 62 68 81 103 73 65 74 74 76 80 60 18 42 48 138 147 150 350 318 256 253 219 132 86 154 202 89
359 2 17 29 43 50 56 56 59 85 73 76 85 111 94 90 73 112 95 66 93 103 123 100 81 84 82 80 58 35 125 109 72 142 165 219 85 18 350 268 61 93 106 96
356 332 352 14 25 40 37 43 44 80 104 114 133 137 124 104 93 89 96 73 62 140 144 127 123 98 48 52 47 65 27 130 115 186 200 6 182 56 81 178 130 43 117 44
345 342 306 350 1 19 28 42 43 60 134 210 145 142 160 169 155 142 117 110 63 145 76 125 175 160 142 155 119 66 87 81 155 165 195 206 93 135 115 163 233 77 84 43
345 332 331 314 316 341 352 14 23 38 81 184 172 174 167 158 138 138 165 139 125 78 102 102 145 153 27 168 170 164 136 100 186 176 222 228 152 154 158 216 81 126 102 93
340 330 332 351 306 296 308 325 340 14 295 242 213 204 168 164 178 184 154 162 118 111 101 196 166 164 192 211 148 188 179 163 173 171 210 225 154 141 223 95 110 91 318 315
335 328 344 7 341 322 311 308 313 311 279 244 229 225 225 223 221 181 167 65 143 147 109 148 138 153 177 184 207 177 214 228 190 212 191 141 166 178 212 215 225 221 232 261
312 324 347 356 346 347 339 326 323 318 298 292 253 237 227 231 237 224 149 194 184 171 154 144 133 175 169 186 223 187 210 198 229 194 194 213 225 217 214 203 213 246 267 278
288 296 326 342 347 347 339 335 331 345 319 335 22 171 216 224 227 218 214 204 176 159 153 138 160 194 196 186 114 248 190 159 192 257 239 188 221 211 194 165 151 165 207 252
270 287 307 323 333 326 332 333 352 54 44 273 279 294 249 235 225 216 220 224 194 165 164 179 188 146 162 158 184 226 191 183 184 216 196 185 206 202 193 182 198 202 216 252
268 278 297 314 318 320 333 344 66 34 9 342 316 334 349 327 258 218 222 222 217 194 177 184 199 196 186 174 213 240 204 208 204 180 175 175 174 187 197 198 206 224 245 263
281 286 285 293 306 296 242 180 57 28 2 12 312 341 329 353 154 207 217 221 216 212 192 217 175 172 186 195 212 276 216 213 211 200 164 180 195 205 220 228 230 247 264 269
292 280 279 304 292 111 103 68 312 289 357 38 337 281 322 334 290 246 201 202 209 221 201 167 165 139 169 243 257 275 278 235 212 212 210 205 194 198 219 231 235 250 264 276
276 254 286 139 117 114 356 26 63 103 146 17 317 320 358 331 279 282 41 245 14 9 17 35 77 50 224 245 305 304 130 109 268 223 218 225 242 245 238 231 232 249 273 279
207 198 141 135 123 63 100 81 76 126 190 231 230 238 271 281 332 67 60 47 113 6 281 117 116 254 264 259 255 217 227 216 246 172 182 225 248 244 242 236 237 259 283 287
186 161 130 168 150 150 139 148 174 146 248 223 229 215 278 305 270 101 39 116 123 344 99 242 48 289 283 290 182 148 117 173 240 250 229 260 258 269 259 239 244 262 279 289
184 251 214 177 165 133 169 314 164 215 253 206 207 220 222 232 204 160 175 98 188 302 186 285 302 273 355 132 180 207 223 234 273 266 261 253 256 275 278 259 248 256 260 293
270 141 142 167 163 71 176 79 194 246 197 202 208 287 176 162 161 144 193 206 44 317 260 301 252 233 205 185 186 226 241 258 277 288 279 272 264 268 278 274 248 247 247 276
208 174 178 237 200 238 205 239 238 247 228 246 256 172 207 155 171 138 225 108 228 239 359 355 323 290 188 203 231 259 276 278 279 274 285 291 291 297 287 282 245 239 246 261
203 180 218 223 245 257 250 282 262 238 228 220 132 131 188 123 139 63 126 184 190 218 311 270 282 298 255 249 250 259 280 288 275 274 276 284 284 290 291 276 245 238 247 263
218 230 244 224 250 256 246 247 244 202 162 137 140 147 162 98 48 194 184 283 221 198 231 288 308 305 298 282 265 262 298 290 293 306 301 284 283 272 294 279 220 265 270 244
229 237 238 250 277 266 261 231 191 165 168 202 165 27 61 130 204 200 194 240 272 271 290 315 326 320 331 302 273 269 284 286 296 304 300 282 278 286 280 240 221 248 252 236
Wind_Speed_850mb
44 50 52 44 37 30 12 12 5 40 15 13 7 7 6 12 23 21 14 10 15 11 12 12 9 8 10 31 10 7 8 8 10 9 3 6 10 6 3 14 11 5 2 9
41 48 49 42 40 37 11 9 18 37 9 7 7 7 9 19 22 18 14 14 16 12 8 9 8 6 12 28 13 7 4 6 10 5 6 5 7 9 6 4 1 7 11 11
36 42 44 41 42 33 16 8 5 21 35 16 8 6 8 7 17 18 17 12 7 6 12 16 9 7 9 15 17 23 6 8 6 1 8 3 4 8 10 6 7 14 6 22
32 38 39 39 39 34 10 14 7 6 7 16 16 7 6 9 9 11 24 12 20 7 7 7 8 6 6 15 25 11 7 8 12 17 12 5 1 4 9 9 7 4 18 16
29 31 38 34 32 35 38 10 6 11 7 4 12 11 9 14 7 12 13 13 17 16 10 8 7 3 8 7 15 8 6 9 9 6 6 6 7 10 9 3 3 6 8 10
21 26 31 33 26 26 22 22 14 8 10 5 5 6 4 7 5 14 16 9 12 19 13 10 11 13 10 7 6 7 5 10 5 7 3 4 9 8 10 1 3 2 8 10
17 19 24 30 29 24 20 20 12 8 5 6 6 7 9 11 9 12 8 12 7 6 7 21 19 20 20 15 13 7 8 8 3 8 6 9 9 8 5 3 5 7 9 8
17 11 14 21 23 24 20 18 13 6 5 6 11 11 9 8 7 7 8 6 4 6 13 10 10 5 3 10 14 6 5 6 6 8 11 4 10 3 2 1 6 9 4 6
16 13 11 11 15 16 15 17 12 6 12 8 10 10 9 5 4 4 6 6 7 4 4 3 7 7 7 7 5 9 10 6 3 6 6 11 8 13 4 10 8 8 9 9
16 13 11 8 11 11 13 14 15 4 1 10 15 6 7 11 7 3 1 3 3 6 3 3 2 5 1 11 16 11 7 5 9 9 6 5 8 11 8 9 7 11 7 4
16 14 11 10 9 12 13 12 10 7 2 9 19 15 14 11 8 5 10 6 4 4 3 1 4 4 8 4 4 7 12 13 8 6 8 12 16 10 9 10 5 1 4 3
13 13 10 12 11 11 12 11 12 14 8 7 16 25 20 15 8 11 16 1 7 8 7 2 5 4 4 3 4 5 7 5 6 12 5 11 17 3 5 7 9 10 9 10
11 9 8 10 12 13 12 12 12 13 8 10 11 20 30 27 23 13 11 10 13 12 12 11 5 4 7 8 8 6 9 9 5 4 15 22 16 13 9 10 8 7 9 10
12 10 8 10 12 14 14 13 10 5 4 3 3 3 5 18 28 29 24 12 21 21 17 6 5 4 14 5 1 5 5 19 9 8 11 7 20 20 12 11 11 7 5 6
13 12 10 11 13 14 15 13 3 6 6 3 8 17 11 19 18 35 35 28 22 21 12 7 7 9 10 5 5 9 24 15 12 10 19 17 8 35 24 17 15 16 14 14
15 15 11 11 13 13 12 3 4 6 11 7 4 8 5 8 14 33 38 33 29 25 17 10 10 9 15 10 8 13 32 29 24 6 13 12 15 28 28 24 20 18 19 20
12 13 12 11 13 11 4 3 3 9 11 4 7 9 5 9 3 20 28 36 20 18 9 8 9 8 16 3 7 4 21 29 33 29 21 14 23 17 31 29 21 20 24 23
12 10 8 7 2 10 8 2 6 8 3 3 2 4 4 2 3 3 9 10 16 13 13 9 9 15 10 6 15 13 12 15 25 37 34 12 11 18 21 21 20 20 21 20
6 4 4 9 6 4 3 5 6 3 2 2 2 4 4 6 4 2 2 3 2 17 7 9 6 3 7 10 9 7 5 3 11 30 27 25 25 21 21 23 19 18 15 17
3 3 4 4 4 3 3 3 3 4 1 3 5 3 3 4 3 4 2 8 3 2 2 7 1 4 19 21 14 8 9 23 7 10 8 12 20 24 23 23 18 17 13 15
4 3 4 3 4 6 3 3 2 3 3 7 8 12 6 3 4 2 4 4 2 4 3 3 0 4 5 5 15 14 13 7 2 8 13 18 24 19 17 20 21 18 16 17
4 1 4 4 5 2 2 1 3 6 4 8 7 4 8 2 3 4 5 2 4 2 2 3 4 2 6 6 15 20 14 10 14 20 24 18 27 26 28 31 26 17 14 14
4 3 3 3 3 4 3 1 4 4 7 9 7 3 5 5 4 4 5 6 1 3 2 3 4 5 9 13 15 13 17 19 17 13 16 20 25 26 23 26 26 22 20 17
3 3 1 3 4 6 6 3 2 3 6 6 5 3 4 4 5 3 3 2 3 1 4 4 4 5 10 15 16 16 12 12 12 14 16 17 19 22 21 22 24 23 22 18
2 4 5 8 10 9 7 7 6 6 5 4 5 5 4 4 4 1 4 5 2 2 1 3 7 8 14 19 18 15 13 14 16 21 23 22 22 22 22 25 24 21 19 24
3 6 6 8 5 3 5 10 8 7 6 6 4 3 3 4 2 3 1 2 3 1 5 9 18 18 16 16 16 13 8 21 22 23 26 25 22 18 16 11 12 12 21 20
5 8 15 18 16 10 5 4 5 5 5 1 3 1 4 4 2 2 4 3 2 6 10 12 15 17 10 7 8 13 12 20 32 28 27 20 17 20 18 10 14 21 14 12
Wind_Direction_850mb
3 2 4 7 9 5 339 44 45 346 22 48 41 63 29 10 356 17 50 68 54 57 44 61 86 97 6 343 324 34 20 80 77 99 331 339 34 61 350 224 177 63 325 121
7 5 9 13 12 9 38 81 43 20 95 84 74 82 77 45 24 26 23 43 46 54 65 107 78 92 2 11 43 26 14 48 123 159 209 155 55 34 58 96 36 167 196 139
9 10 14 15 15 11 41 67 41 24 53 59 79 97 43 90 40 49 54 34 52 91 55 42 112 104 31 13 32 37 68 64 340 150 74 55 126 47 39 356 200 145 66 137
11 13 18 21 22 22 51 57 65 44 20 37 66 77 44 53 39 46 32 46 37 46 97 77 79 49 27 54 10 40 46 92 88 76 76 66 20 2 24 51 83 325 135 127
10 15 23 26 31 46 66 89 119 83 70 10 52 28 43 62 58 22 39 84 45 60 85 46 117 92 33 28 357 47 19 117 128 77 39 16 289 283 300 311 122 128 130 124
5 14 24 34 39 43 61 77 80 101 14 45 61 31 69 78 103 62 68 81 103 73 65 74 74 76 80 60 18 42 48 138 147 150 350 318 256 253 219 132 86 154 202 89
359 2 17 29 43 50 56 56 59 85 73 76 85 111 94 90 73 112 95 66 93 103 123 100 81 84 82 80 58 35 125 109 72 142 165 219 85 18 350 268 61 93 106 96
356 332 352 14 25 40 37 43 44 80 104 114 133 137 124 104 93 89 96 73 62 140 144 127 123 98 48 52 47 65 27 130 115 186 200 6 182 56 81 178 130 43 117 44
345 342 306 350 1 19 28 42 43 60 134 210 145 142 160 169 155 142 117 110 63 145 76 125 175 160 142 155 119 66 87 81 155 165 195 206 93 135 115 163 233 77 84 43
345 332 331 314 316 341 352 14 23 38 81 184 172 174 167 158 138 138 165 139 125 78 102 102 145 153 27 168 170 164 136 100 186 176 222 228 152 154 158 216 81 126 102 93
340 330 332 351 306 296 308 325 340 14 295 242 213 204 168 164 178 184 154 162 118 111 101 196 166 164 192 211 148 188 179 163 173 171 210 225 154 141 223 95 110 91 318 315
335 328 344 7 341 322 311 308 313 311 279 244 229 225 225 223 221 181 167 65 143 147 109 148 138 153 177 184 207 177 214 228 190 212 191 141 166 178 212 215 225 221 232 261
312 324 347 356 346 347 339 326 323 318 298 292 253 237 227 231 237 224 149 194 184 171 154 144 133 175 169 186 223 187 210 198 229 194 194 213 225 217 214 203 213 246 267 278
288 296 326 342 347 347 339 335 331 345 319 335 22 171 216 224 227 218 214 204 176 159 153 138 160 194 196 186 114 248 190 159 192 257 239 188 221 211 194 165 151 165 207 252
270 287 307 323 333 326 332 333 352 54 44 273 279 294 249 235 225 216 220 224 194 165 164 179 188 146 162 158 184 226 191 183 184 216 196 185 206 202 193 182 198 202 216 252
268 278 297 314 318 320 333 344 66 34 9 342 316 334 349 327 258 218 222 222 217 194 177 184 199 196 186 174 213 240 204 208 204 180 175 175 174 187 197 198 206 224 245 263
281 286 285 293 306 296 242 180 57 28 2 12 312 341 329 353 154 207 217 221 216 212 192 217 175 172 186 195 212 276 216 213 211 200 164 180 195 205 220 228 230 247 264 269
292 280 279 304 292 111 103 68 312 289 357 38 337 281 322 334 290 246 201 202 209 221 201 167 165 139 169 243 257 275 278 235 212 212 210 205 194 198 219 231 235 250 264 276
276 254 286 139 117 114 356 26 63 103 146 17 317 320 358 331 279 282 41 245 14 9 17 35 77 50 224 245 305 304 130 109 268 223 218 225 242 245 238 231 232 249 273 279
207 198 141 135 123 63 100 81 76 126 190 231 230 238 271 281 332 67 60 47 113 6 281 117 116 254 264 259 255 217 227 216 246 172 182 225 248 244 242 236 237 259 283 287
186 161 130 168 150 150 139 148 174 146 248 223 229 215 278 305 270 101 39 116 123 344 99 242 48 289 283 290 182 148 117 173 240 250 229 260 258 269 259 239 244 262 279 289
184 251 214 177 165 133 169 314 164 215 253 206 207 220 222 232 204 160 175 98 188 302 186 285 302 273 355 132 180 207 223 234 273 266 261 253 256 275 278 259 248 256 260 293
270 141 142 167 163 71 176 79 194 246 197 202 208 287 176 162 161 144 193 206 44 317 260 301 252 233 205 185 186 226 241 258 277 288 279 272 264 268 278 274 248 247 247 276
208 174 178 237 200 238 205 239 238 247 228 246 256 172 207 155 171 138 225 108 228 239 359 355 323 290 188 203 231 259 276 278 279 274 285 291 291 297 287 282 245 239 246 261
203 180 218 223 245 257 250 282 262 238 228 220 132 131 188 123 139 63 126 184 190 218 311 270 282 298 255 249 250 259 280 288 275 274 276 284 284 290 291 276 245 238 247 263
218 230 244 224 250 256 246 247 244 202 162 137 140 147 162 98 48 194 184 283 221 198 231 288 308 305 298 282 265 262 298 290 293 306 301 284 283 272 294 279 220 265 270 244
229 237 238 250 277 266 261 231 191 165 168 202 165 27 61 130 204 200 194 240 272 271 290 315 326 320 331 302 273 269 284 286 296 304 300 282 278 286 280 240 221 248 252 236